Regional Weather Roundup
Issued by NWS

Home | Current Version | Previous Version | Graphics & Text | Print | Product List | Glossary On
Versions: 1 2 3 4 5 6 7 8 9 10 11 12 13 14 15 16 17 18 19 20 21 22 23 24 25 26 27 28 29 30 31 32 33 34 35 36 37 38 39 40 41 42 43 44 45 46 47 48 49 50
000
ASUS43 KLMK 310002
RWRKY
KENTUCKY REGIONAL WEATHER ROUNDUP
NATIONAL WEATHER SERVICE LOUISVILLE KY
800 PM EDT MON MAR 30 2015

NOTE "FAIR" INDICATES FEW OR NO CLOUDS BELOW 12,000 FEET
WITH NO SIGNIFICANT WEATHER AND/OR OBSTRUCTIONS TO VISIBILITY.

KYZ001>023-026-027-061>063-070>075-310100-
WESTERN AND SOUTH CENTRAL KENTUCKY

CITY           SKY/WX    TMP DP  RH WIND       PRES   REMARKS
PADUCAH        CLEAR     62  34  35 SW8       30.09F
HENDERSON      CLEAR     57  28  33 S5        30.07F
OWENSBORO      CLEAR     59  36  42 CALM      30.09F
HOPKINSVILLE   NOT AVBL
BOWLING GREEN  CLEAR     62  24  23 NW5       30.10S
GLASGOW        NOT AVBL
$$

KYZ024-025-028>034-038-045-046-053-310100-
NORTH CENTRAL KENTUCKY

CITY           SKY/WX    TMP DP  RH WIND       PRES   REMARKS
LOUISVILLE/SDF PTCLDY    60  27  28 W12       30.06S
LOUISVILLE/LOU CLEAR     59  28  30 W5        30.06F
FORT KNOX      NOT AVBL
$$

KYZ035>037-039>044-047>052-055>060-089>105-310100-
NORTHEAST KENTUCKY

CITY           SKY/WX    TMP DP  RH WIND       PRES   REMARKS
LEXINGTON      CLEAR     54  27  35 W5        30.07F
COVINGTON      MOCLDY    54  29  38 NW6       30.05S
FRANKFORT      CLEAR     56  25  30 W3        30.06S
$$

KYZ054-064>069-076>088-106>120-310100-
SOUTHEAST KENTUCKY

CITY           SKY/WX    TMP DP  RH WIND       PRES   REMARKS
JACKSON        CLEAR     55  26  32 W10       30.06F
LONDON         CLEAR     57  24  28 NW6       30.08S
SOMERSET       NOT AVBL
MIDDLESBORO    CLEAR     58  30  34 NW10      30.09R
MONTICELLO     CLEAR     54  33  44 CALM      30.12S
$$



USA.gov is the U.S. government's official web portal to all federal, state and local government web resources and services.